Weather in Staryye Yurkovichi

Russia / Bryansk Oblast     52°09′55″N   31°51′24″E
temp.,
°C
wind,
m/s
gust,
m/s
humid.,
%
clouds,
%
prec.,
mm/h
press.,
hPa
HPBL,
m
20 june, sun
sun2000:00+19ese39950 0.0 1021180
03:00+17e37950 0.0 1021136
06:00+18e49916 0.0 1020195
09:00+22e5874100 0.0 1020447
12:00+24e6864100 0.0 1019751
15:00+25e6862100 0.0 1018825
18:00+24e5872100 0.0 1018570
21:00+21e41086100 0.0 1018273
21 june, mon
mon2100:00+18e4119592 0.0 1018239
03:00+17e4109435 0.0 1017193
06:00+17e4118897 0.0 1017253
09:00+22e587068 0.0 1016422
12:00+26ese796069 0.0 1015765
15:00+28ese795699 0.0 10151176
18:00+27ese5966100 0.0 1015633
21:00+22e4118782 0.0 1015259
22 june, tue
tue2200:00+20ese4119298 0.0 1015271
03:00+18ese37950 0.0 1016133
06:00+18ese389287 0.0 1016181
09:00+24ese466813 0.0 1016406
12:00+28ese575394 0.0 1016776
15:00+30se69485 0.0 10151464
18:00+27se59606 0.0 1016670
21:00+23e4983100 0.0 1016180
23 june, wed
wed2300:00+20e37945 0.0 1017117
03:00+20e35950 0.0 101796
06:00+20e369359 0.0 1017131
09:00+26ese586994 0.0 1017417
12:00+29e685866 0.0 1017789
15:00+30ese78556 0.0 10171109
18:00+29ese586541 0.0 1017773
21:00+24ese48866 0.0 1017159
24 june, thu
thu2400:00+21ese359599 0.0 101881
03:00+21ese349439 0.0 101857
06:00+20ese369267 0.0 1018136
09:00+25ese467197 0.0 1018421
12:00+29se455590 0.0 1018921
15:00+31ese454655 0.0 10171481
18:00+30ese465989 0.0 1017511
21:00+24se36795 0.0 101683